TimeEDT,TemperatureF,Dew PointF,Humidity,Sea Level PressureIn,VisibilityMPH,Wind Direction,Wind SpeedMPH,Gust SpeedMPH,PrecipitationIn,Events,Conditions,WindDirDegrees,DateUTC
12:53 AM,72.0,60.1,66,29.78,10.0,SSW,10.4,21.9,N/A,,Clear,200,2013-05-22 04:53:00
1:53 AM,71.1,60.1,68,29.77,10.0,SSW,13.8,21.9,N/A,,Clear,210,2013-05-22 05:53:00
2:53 AM,72.0,61.0,68,29.77,10.0,SSW,13.8,24.2,N/A,,Mostly Cloudy,200,2013-05-22 06:53:00
3:53 AM,71.1,61.0,70,29.76,10.0,SSW,9.2,20.7,N/A,,Clear,200,2013-05-22 07:53:00
4:53 AM,72.0,62.1,71,29.76,10.0,SSW,9.2,-,N/A,,Clear,200,2013-05-22 08:53:00
5:53 AM,72.0,62.1,71,29.77,10.0,SSW,10.4,19.6,N/A,,Scattered Clouds,200,2013-05-22 09:53:00
6:53 AM,72.0,63.0,73,29.78,10.0,SSW,10.4,23.0,N/A,,Mostly Cloudy,200,2013-05-22 10:53:00
7:53 AM,72.0,63.0,73,29.80,10.0,SSW,18.4,24.2,N/A,,Clear,200,2013-05-22 11:53:00
8:53 AM,73.0,64.0,73,29.81,10.0,SSW,13.8,24.2,N/A,,Clear,200,2013-05-22 12:53:00
9:53 AM,77.0,64.0,64,29.80,10.0,SSW,16.1,25.3,N/A,,Clear,200,2013-05-22 13:53:00
10:53 AM,80.1,63.0,56,29.79,10.0,SSW,13.8,23.0,N/A,,Clear,210,2013-05-22 14:53:00
11:53 AM,82.0,60.1,47,29.78,10.0,WSW,13.8,20.7,N/A,,Partly Cloudy,240,2013-05-22 15:53:00
12:53 PM,81.0,63.0,54,29.78,10.0,West,11.5,19.6,N/A,,Partly Cloudy,270,2013-05-22 16:53:00
1:53 PM,81.0,63.0,54,29.75,10.0,WNW,16.1,19.6,N/A,,Clear,290,2013-05-22 17:53:00
2:53 PM,80.1,63.0,56,29.73,10.0,WNW,10.4,-,N/A,,Scattered Clouds,290,2013-05-22 18:53:00
3:53 PM,80.1,63.0,56,29.70,10.0,WNW,9.2,16.1,N/A,,Scattered Clouds,290,2013-05-22 19:53:00
4:53 PM,88.0,57.9,36,29.66,10.0,SSW,20.7,34.5,N/A,,Partly Cloudy,200,2013-05-22 20:53:00
5:02 PM,87.8,57.2,35,29.67,10.0,SSW,19.6,28.8,N/A,,Clear,210,2013-05-22 21:02:00
5:53 PM,86.0,57.9,38,29.65,10.0,SSW,21.9,29.9,N/A,,Scattered Clouds,210,2013-05-22 21:53:00
6:53 PM,75.9,57.9,54,29.68,10.0,WSW,11.5,23.0,N/A,,Mostly Cloudy,250,2013-05-22 22:53:00
7:53 PM,73.9,57.9,57,29.70,10.0,WSW,8.1,-,N/A,,Partly Cloudy,240,2013-05-22 23:53:00
8:53 PM,73.0,57.9,59,29.70,10.0,West,3.5,-,N/A,,Mostly Cloudy,260,2013-05-23 00:53:00
9:53 PM,66.9,62.1,84,29.70,10.0,Calm,Calm,-,N/A,,Clear,0,2013-05-23 01:53:00
10:53 PM,70.0,57.9,65,29.73,10.0,SW,8.1,-,N/A,,Partly Cloudy,220,2013-05-23 02:53:00
11:53 PM,68.0,59.0,73,29.73,10.0,South,5.8,-,N/A,,Mostly Cloudy,190,2013-05-23 03:53:00